#timestamp,LO_Frequency,Hit,StdDev 
1509750015.0,286047000.8,N
1509750016.0,286047000.8,N
1509750035.8,286047004.8,N
1509750055.6,286047006.5,Y
1509750075.5,286047005.7,P
1509750095.3,286047001.1,N
1509750115.1,286046997.6,N
1509750135.9,286046994.9,N
1509750155.7,286046993.6,N
1509750175.5,286046993.7,N
1509750195.4,286046989.7,N
1509750215.2,286046987.1,N
1509750235.0,286046987.7,N
1509750235.9,286046987.7,N
1509750255.8,286046987.0,N
1509750275.6,286046984.3,N
1509750295.4,286046986.4,N
1509750315.3,286046986.2,N
1509750335.1,286046989.6,N
1509750355.8,286046991.2,N
1509750375.7,286046990.3,N
1509750395.5,286046989.9,N
1509750415.3,286046988.4,N
1509750435.2,286046985.8,N
1509750455.0,286046988.3,N
1509750455.9,286046988.3,N
1509750475.7,286046985.4,N
1509750495.6,286046987.7,N
1509750515.4,286046985.7,N
1509750535.2,286046986.5,N
1509750555.1,286046982.3,Y
1509750556.0,286046982.3,P
1509750575.8,286046992.8,N
1509750595.7,286046995.2,N
1509750615.5,286046999.3,N
1509750635.3,286047001.1,N
1509750655.2,286046995.4,N
1509750675.9,286046995.0,N
1509750695.7,286046997.0,N
1509750715.6,286046996.1,N
1509750735.4,286046996.2,N
1509750755.2,286046996.1,N
1509750775.1,286046996.1,N
1509750776.0,286046996.1,N
1509750795.8,286046997.5,N
1509750815.6,286047001.1,N
1509750835.5,286046997.1,N
1509750855.3,286046999.1,N
1509750875.1,286046997.0,N
1509750895.9,286046998.5,N
1509750915.7,286046998.5,N
1509750935.5,286046998.1,N
1509750955.4,286047000.4,N
1509750975.2,286047000.2,N
1509750995.0,286047004.3,N
1509750995.9,286047004.3,N
1509751015.8,286047007.6,N
1509751035.6,286047007.8,N
1509751055.4,286047007.2,N
1509751075.3,286047007.0,N
1509751095.1,286047008.0,N
1509751115.9,286047009.7,N
1509751135.7,286047012.0,N
1509751155.5,286047010.1,N
1509751175.3,286047010.6,N
1509751195.2,286047010.9,N
1509751215.0,286047010.9,N
1509751215.9,286047010.9,N
1509751235.7,286047013.2,N
1509751255.6,286047011.2,N
1509751275.4,286047010.0,N
1509751295.2,286047006.8,N
1509751315.1,286047005.3,N
1509751316.0,286047005.3,N
1509751335.8,286047003.8,N
1509751355.6,286047007.1,N
1509751375.5,286047006.0,N
1509751395.3,286047008.7,N
1509751415.1,286047007.0,N
1509751435.9,286047008.6,N
1509751455.7,286047009.9,N
1509751475.6,286047011.2,Y
1509751495.4,286047004.6,P
1509751515.2,286047007.5,P
1509751535.1,286047003.3,N
1509751536.0,286047003.3,N
1509751555.8,286047003.9,N
1509751575.6,286047001.5,N
1509751595.5,286047005.4,N
1509751615.3,286047008.9,Y
1509751635.1,286047002.2,P
1509751655.9,286047005.0,P
1509751675.7,286047005.9,P
1509751695.5,286047001.3,N
1509751715.4,286047003.8,N
1509751735.2,286047004.1,N
1509751755.0,286047001.6,N
1509751755.9,286047001.6,N
1509751775.8,286047000.8,N
1509751795.6,286047002.7,N
1509751815.4,286047004.3,N
1509751835.3,286047006.0,Y
1509751855.1,286047002.3,P
1509751875.8,286047005.5,P
1509751895.7,286047007.0,P
1509751915.5,286046999.2,N
1509751935.3,286046992.9,N
1509751955.2,286046987.6,N
1509751975.0,286046984.6,N
1509751975.9,286046984.6,N
1509751995.8,286046977.3,N
1509752015.6,286046983.0,N
1509752035.4,286046985.0,N
1509752055.3,286046981.2,N
1509752075.1,286046984.9,N
1509752076.0,286046984.9,N
1509752095.8,286046988.4,N
1509752115.7,286046987.6,N
1509752135.5,286046993.1,N
1509752155.3,286046985.3,N
1509752175.2,286046984.7,N
1509752195.9,286046980.1,N
1509752215.7,286046978.3,N
1509752235.6,286046981.8,N
1509752255.4,286046982.6,N
1509752275.2,286046986.4,N
1509752295.1,286046985.5,N
1509752296.0,286046985.5,N
1509752315.8,286046987.2,N
1509752335.6,286046982.8,N
1509752355.5,286046984.9,N
1509752375.3,286046987.7,N
1509752395.1,286046990.0,N
1509752415.9,286046988.3,N
1509752435.7,286046987.5,N
1509752455.5,286046988.4,N
1509752475.4,286046986.7,Y
1509752495.2,286047000.2,P
1509752515.0,286047004.2,N
1509752515.9,286047004.2,N
1509752535.8,286047004.1,N
1509752555.6,286047001.5,N
1509752575.4,286047002.3,N
1509752595.3,286047002.0,N
1509752615.1,286047002.2,N
1509752635.8,286047005.7,N
1509752655.7,286047005.7,N
1509752675.5,286047006.7,N
1509752695.3,286047003.2,N
1509752715.2,286047005.7,N
1509752735.0,286047005.4,N
1509752735.9,286047005.4,N
1509752755.7,286047003.2,N
1509752775.6,286047003.5,N
1509752795.4,286047003.8,N
1509752815.3,286047004.5,N
1509752835.1,286047007.3,N
1509752836.0,286047007.3,N
1509752855.8,286047007.5,N
1509752875.7,286047006.9,N
1509752895.5,286047006.5,N
1509752915.3,286047004.6,N
1509752935.2,286047005.6,N
1509752955.9,286047003.6,N
1509752975.7,286047001.9,N
1509752995.6,286047001.8,N
1509753015.4,286047006.9,N
1509753035.2,286047006.1,Y
1509753055.1,286047005.7,P
1509753056.0,286047005.7,P
1509753075.8,286047005.6,P
1509753095.6,286047004.6,Y
1509753115.5,286047000.6,P
1509753135.3,286047007.4,P
1509753155.1,286047006.0,N
1509753175.9,286047005.1,N
1509753195.7,286047005.8,N
1509753215.5,286047007.6,Y
1509753235.4,286046998.7,P
1509753255.2,286046999.1,N
1509753275.0,286047002.5,N
1509753275.9,286047002.5,N
1509753295.8,286047003.9,N
1509753315.6,286047005.3,N
1509753335.4,286047003.1,N
1509753355.3,286047004.4,N
1509753375.1,286047001.1,N
1509753395.9,286046998.3,N
1509753415.7,286046997.9,N
1509753435.5,286046996.0,N
1509753455.3,286046995.6,N
1509753475.2,286046999.6,N
1509753495.0,286046998.7,N
1509753495.9,286046998.7,N
1509753515.8,286046996.5,N
1509753535.6,286046997.3,N
1509753555.4,286046996.7,N
1509753575.3,286046996.6,N
1509753595.1,286047000.6,N
1509753596.0,286047000.6,N
